This is the latest recevied weather packets stored in our database for station/object SQ6RR-11. If no packets are shown the sender has not sent any weather packets the latest 1 day(s).
| Time | Temp. | Humidity | Pressure | Rain* | Wind** | Luminosity | Snow |
|---|---|---|---|---|---|---|---|
| 1777962850 | 18.89° C | 44% | 1010.4 hPa | 0 mm | 0 m/s | - | - |
| 1777962601 | 18.89° C | 44% | 1010.4 hPa | 0 mm | 0 m/s | - | - |
| 1777962327 | 18.89° C | 44% | 1010.3 hPa | 0 mm | 0 m/s | - | - |
| 1777962063 | 19.44° C | 46% | 1010.4 hPa | 0 mm | 0 m/s | - | - |
| 1777961807 | 18.33° C | 48% | 1010.4 hPa | 0 mm | 0 m/s | - | - |
| 1777961542 | 18.33° C | 50% | 1010.5 hPa | 0 mm | 0 m/s | - | - |
| 1777961254 | 17.78° C | 48% | 1010.5 hPa | 0 mm | 0 m/s | - | - |
| 1777960977 | 17.78° C | 50% | 1010.5 hPa | 0 mm | 0 m/s | - | - |
| 1777960697 | 17.78° C | 50% | 1010.6 hPa | 0 mm | 0 m/s | - | - |
| 1777960437 | 17.78° C | 53% | 1010.5 hPa | 0 mm | 0 m/s | - | - |
| 1777960167 | 17.78° C | 55% | 1010.6 hPa | 0 mm | 0 m/s | - | - |
| 1777959927 | 17.22° C | 55% | 1010.6 hPa | 0 mm | 0 m/s | - | - |
| 1777959650 | 17.22° C | 55% | 1010.5 hPa | 0 mm | 0 m/s | - | - |
| 1777959367 | 17.22° C | 55% | 1010.4 hPa | 0 mm | 0 m/s | - | - |
| 1777959097 | 16.67° C | 55% | 1010.3 hPa | 0 mm | 0 m/s | - | - |
| 1777958827 | 16.67° C | 57% | 1010.1 hPa | 0 mm | 0 m/s | - | - |
| 1777958555 | 16.67° C | 60% | 1010.2 hPa | 0 mm | 0 m/s | - | - |
| 1777958271 | 16.11° C | 64% | 1010.6 hPa | 0 mm | 0 m/s | - | - |
| 1777958001 | 16.11° C | 64% | 1010.7 hPa | 0 mm | 0 m/s | - | - |
| 1777957737 | 16.11° C | 63% | 1010.7 hPa | 0 mm | 0 m/s | - | - |
| 1777957457 | 16.11° C | 63% | 1010.8 hPa | 0 mm | 0 m/s | - | - |
| 1777957174 | 15.56° C | 63% | 1010.7 hPa | 0 mm | 0 m/s | - | - |
| 1777956901 | 15.56° C | 61% | 1010.7 hPa | 0 mm | 0 m/s | - | - |
| 1777956645 | 15.56° C | 61% | 1010.6 hPa | 0 mm | 0 m/s | - | - |
| 1777956375 | 15.56° C | 62% | 1010.6 hPa | 0 mm | 0 m/s | - | - |
* Rain latest hour (hover to see other rain measurements)
** Current wind speed in m/s (hover to see current wind gust speed)